EW5089 Weather Reports


Display with metric or nautical units.
time (UTC)temp
F
wind
direction
speed
MPH
gust
MPH
rain 1hr
in
rain 24hr
in
rain mn
in
humidity
%
barometer
mb
20200330074551 39 161 3.0 8.0 0.00 0.00 0.00 71 1011.5
20200330073027 40 188 4.0 12.0 0.00 0.00 0.00 71 1011.6
20200330071508 40 190 5.0 10.0 0.00 0.00 0.00 70 1011.7
20200330063053 40 230 4.0 9.0 0.00 0.00 0.00 70 1011.8
20200330054829 41 232 2.0 4.0 0.00 0.00 0.00 70 1012.0
20200330051522 41 223 2.0 8.0 0.00 0.00 0.00 70 1012.0
20200330044642 41 213 3.0 12.0 0.00 0.00 0.00 70 1011.9
20200330041629 41 206 3.0 7.0 0.00 0.00 0.00 75 1011.8
20200330040111 41 164 3.0 9.0 0.00 0.00 0.00 75 1011.8
20200330033044 41 219 2.0 5.0 0.00 0.00 0.00 79 1012.0
20200330030016 42 159 4.0 11.0 0.00 0.00 0.00 74 1012.3
20200330020106 45 234 3.0 14.0 0.00 0.00 0.00 61 1011.7
20200330014512 47 207 4.0 11.0 0.00 0.00 0.00 56 1011.5
20200330011522 48 257 4.0 12.0 0.00 0.00 0.00 53 1011.7
20200330010044 48 171 3.0 20.0 0.00 0.00 0.00 53 1011.9
20200330004607 50 262 10.0 18.0 0.00 0.00 0.00 49 1011.7
20200329234618 53 263 5.0 16.0 0.00 0.00 0.00 39 1011.4
20200329230105 52 248 4.0 15.0 0.00 0.00 0.00 42 1011.5
20200329224620 52 293 6.0 15.0 0.00 0.00 0.00 44 1011.7
20200329221628 52 286 4.0 13.0 0.00 0.00 0.00 43 1012.1
20200329210028 50 186 3.0 14.0 0.00 0.00 0.00 49 1013.3
20200329200047 49 188 6.0 16.0 0.00 0.00 0.00 52 1013.7
20200329193052 49 292 5.0 16.0 0.00 0.00 0.00 52 1013.7
20200329183111 49 240 3.0 12.0 0.00 0.00 0.00 53 1013.8
20200329174503 46 234 4.0 14.0 0.00 0.00 0.00 60 1013.7
20200329170130 41 211 2.0 13.0 0.00 0.00 0.00 74 1013.5
20200329164545 40 207 4.0 12.0 0.00 0.00 0.00 75 1013.4
20200329153112 39 270 5.0 11.0 0.00 0.00 0.00 80 1013.0
20200329143144 37 205 3.0 9.0 0.00 0.00 0.00 83 1013.5
20200329141602 37 217 3.0 9.0 0.00 0.00 0.00 84 1013.5
20200329130013 37 179 1.0 5.0 0.00 0.00 0.00 86 1013.5
20200329124639 37 182 1.0 4.0 0.00 0.00 0.00 86 1013.7
20200329121507 37 194 1.0 3.0 0.00 0.00 0.00 86 1013.7
20200329113019 37 172 1.0 5.0 0.00 0.00 0.00 86 1013.6
20200329103315 37 201 1.0 9.0 0.00 0.00 0.00 86 1013.7
20200329094524 37 246 0.0 2.0 0.00 0.00 0.00 84 1013.9
20200329093008 37 246 0.0 2.0 0.00 0.00 0.00 84 1014.0
20200329090124 38 226 1.0 4.0 0.00 0.00 0.00 83 1014.2